| time (UTC) | temp F | wind direction | speed MPH | gust MPH | rain 1hr in | rain 24hr in | rain mn in | humidity % | barometer mb |
| 20260902064511 | 72 | 209 | 2.0 | 6.0 | 0.00 | 0.00 | 0.00 | 100 | 1014.1 |
| 20260902063115 | 72 | 219 | 1.0 | 3.0 | 0.00 | 0.00 | 0.00 | 100 | 1014.3 |
| 20260902061555 | 72 | 253 | 0.0 | 3.0 | 0.00 | 0.00 | 0.00 | 100 | 1014.6 |
| 20260902060106 | 72 | 279 | 1.0 | 3.0 | 0.00 | 0.00 | 0.00 | 100 | 1014.5 |
| 20260902054602 | 72 | 280 | 0.0 | 2.0 | 0.00 | 0.00 | 0.00 | 100 | 1014.6 |
| 20260902053042 | 72 | 280 | 0.0 | 3.0 | 0.00 | 0.00 | 0.00 | 100 | 1014.5 |
| 20260902051545 | 72 | 279 | 0.0 | 0.0 | 0.00 | 0.00 | 0.00 | 100 | 1014.4 |
| 20260902050033 | 73 | 279 | 0.0 | 0.0 | 0.00 | 0.00 | 0.00 | 100 | 1014.2 |
| 20260902044528 | 74 | 279 | 0.0 | 0.0 | 0.00 | 0.00 | 0.00 | 100 | 1014.1 |
| 20260902043023 | 74 | 278 | 1.0 | 4.0 | 0.00 | 0.00 | 0.00 | 100 | 1014.0 |
| 20260902041535 | 74 | 280 | 1.0 | 4.0 | 0.00 | 0.00 | 0.00 | 100 | 1014.1 |
| 20260902040020 | 74 | 274 | 1.0 | 3.0 | 0.00 | 0.00 | 0.00 | 100 | 1013.9 |
| 20260902034510 | 75 | 273 | 1.0 | 4.0 | 0.00 | 0.00 | 0.00 | 100 | 1013.9 |
| 20260902033007 | 75 | 272 | 1.0 | 3.0 | 0.00 | 0.00 | 0.00 | 100 | 1013.8 |
| 20260902031503 | 76 | 272 | 0.0 | 3.0 | 0.00 | 0.00 | 0.00 | 100 | 1013.9 |
| 20260902030056 | 75 | 272 | 1.0 | 4.0 | 0.00 | 0.00 | 0.00 | 100 | 1013.9 |
| 20260902024555 | 75 | 267 | 0.0 | 2.0 | 0.00 | 0.00 | 0.00 | 100 | 1013.9 |
| 20260902023052 | 75 | 267 | 0.0 | 3.0 | 0.00 | 0.00 | 0.00 | 100 | 1013.9 |
| 20260902021545 | 75 | 269 | 0.0 | 4.0 | 0.00 | 0.00 | 0.00 | 100 | 1013.9 |
| 20260902020040 | 75 | 261 | 0.0 | 1.0 | 0.00 | 0.00 | 0.00 | 100 | 1013.9 |
| 20260902014538 | 75 | 261 | 0.0 | 2.0 | 0.00 | 0.00 | 0.00 | 100 | 1013.7 |
| 20260902013030 | 75 | 260 | 0.0 | 1.0 | 0.00 | 0.00 | 0.00 | 100 | 1013.6 |
| 20260902011526 | 75 | 261 | 0.0 | 0.0 | 0.00 | 0.00 | 0.00 | 100 | 1013.6 |
| 20260902010022 | 75 | 261 | 0.0 | 1.0 | 0.00 | 0.00 | 0.00 | 100 | 1013.5 |
| 20260902004527 | 76 | 261 | 0.0 | 0.0 | 0.00 | 0.00 | 0.00 | 100 | 1013.5 |
| 20260902003034 | 77 | 261 | 0.0 | 1.0 | 0.00 | 0.00 | 0.00 | 100 | 1013.4 |
| 20260902001508 | 77 | 261 | 0.0 | 0.0 | 0.00 | 0.00 | 0.00 | 100 | 1013.4 |
| 20260902000006 | 79 | 261 | 1.0 | 3.0 | 0.00 | 0.00 | 0.00 | 100 | 1013.4 |
| 20260901234559 | 80 | 275 | 0.0 | 3.0 | 0.00 | 0.00 | 0.00 | 100 | 1013.4 |
| 20260901233055 | 80 | 290 | 0.0 | 2.0 | 0.00 | 0.00 | 0.00 | 6 | 1013.4 |
| 20260901231559 | 81 | 297 | 1.0 | 4.0 | 0.00 | 0.00 | 0.00 | 10 | 1013.4 |
| 20260901230045 | 81 | 316 | 1.0 | 6.0 | 0.00 | 0.00 | 0.00 | 12 | 1013.5 |
| 20260901224546 | 82 | 342 | 2.0 | 5.0 | 0.00 | 0.00 | 0.00 | 18 | 1013.4 |
| 20260901223037 | 82 | 348 | 3.0 | 7.0 | 0.00 | 0.00 | 0.00 | 22 | 1013.4 |
| 20260901221538 | 82 | 5 | 3.0 | 7.0 | 0.00 | 0.00 | 0.00 | 20 | 1013.4 |
| 20260901220037 | 82 | 15 | 4.0 | 12.0 | 0.00 | 0.00 | 0.00 | 22 | 1013.5 |
| 20260901214523 | 82 | 355 | 3.0 | 9.0 | 0.00 | 0.00 | 0.00 | 21 | 1013.5 |
| 20260901213019 | 82 | 51 | 3.0 | 10.0 | 0.00 | 0.00 | 0.00 | 25 | 1013.7 |
| 20260901211514 | 81 | 17 | 4.0 | 9.0 | 0.00 | 0.00 | 0.00 | 27 | 1013.8 |
| 20260901210010 | 82 | 5 | 4.0 | 9.0 | 0.00 | 0.00 | 0.00 | 33 | 1013.7 |
| 20260901204505 | 83 | 9 | 4.0 | 8.0 | 0.00 | 0.00 | 0.00 | 39 | 1013.5 |
| 20260901203001 | 85 | 20 | 1.0 | 7.0 | 0.00 | 0.00 | 0.00 | 38 | 1013.2 |
| 20260901201558 | 85 | 59 | 4.0 | 7.0 | 0.00 | 0.00 | 0.00 | 42 | 1013.1 |
| 20260901200053 | 85 | 49 | 3.0 | 7.0 | 0.00 | 0.00 | 0.00 | 39 | 1013.1 |
| 20260901194547 | 86 | 26 | 4.0 | 6.0 | 0.00 | 0.00 | 0.00 | 43 | 1013.2 |
| 20260901193043 | 86 | 343 | 4.0 | 7.0 | 0.00 | 0.00 | 0.00 | 40 | 1013.3 |
| 20260901191540 | 86 | 360 | 2.0 | 6.0 | 0.00 | 0.00 | 0.00 | 39 | 1013.4 |
| 20260901190037 | 85 | 20 | 3.0 | 8.0 | 0.00 | 0.00 | 0.00 | 38 | 1013.5 |
| 20260901184530 | 85 | 37 | 2.0 | 9.0 | 0.00 | 0.00 | 0.00 | 35 | 1013.6 |
| 20260901183025 | 85 | 24 | 1.0 | 8.0 | 0.00 | 0.00 | 0.00 | 37 | 1013.6 |
| 20260901181520 | 84 | 310 | 3.0 | 9.0 | 0.00 | 0.00 | 0.00 | 37 | 1013.7 |
| 20260901180015 | 84 | 41 | 5.0 | 12.0 | 0.00 | 0.00 | 0.00 | 40 | 1013.9 |
| 20260901174511 | 84 | 10 | 5.0 | 10.0 | 0.00 | 0.00 | 0.00 | 41 | 1014.0 |
| 20260901173007 | 84 | 323 | 4.0 | 12.0 | 0.00 | 0.00 | 0.00 | 35 | 1014.0 |
| 20260901171507 | 84 | 5 | 7.0 | 12.0 | 0.00 | 0.00 | 0.00 | 37 | 1014.2 |
| 20260901170105 | 84 | 317 | 3.0 | 10.0 | 0.00 | 0.00 | 0.00 | 32 | 1014.2 |
| 20260901164610 | 84 | 308 | 4.0 | 9.0 | 0.00 | 0.00 | 0.00 | 30 | 1014.1 |
| 20260901163108 | 83 | 15 | 5.0 | 11.0 | 0.00 | 0.00 | 0.00 | 26 | 1014.3 |
| 20260901161544 | 83 | 26 | 3.0 | 9.0 | 0.00 | 0.00 | 0.00 | 24 | 1014.2 |
| 20260901160041 | 83 | 348 | 2.0 | 11.0 | 0.00 | 0.00 | 0.00 | 15 | 1014.2 |
| 20260901154549 | 82 | 15 | 5.0 | 11.0 | 0.00 | 0.00 | 0.00 | 23 | 1014.3 |
| 20260901153038 | 82 | 330 | 4.0 | 8.0 | 0.00 | 0.00 | 0.00 | 17 | 1014.3 |
| 20260901151527 | 82 | 334 | 3.0 | 10.0 | 0.00 | 0.00 | 0.00 | 16 | 1014.3 |
| 20260901150023 | 81 | 336 | 3.0 | 8.0 | 0.00 | 0.00 | 0.00 | 14 | 1014.1 |
| 20260901144521 | 81 | 324 | 2.0 | 10.0 | 0.00 | 0.00 | 0.00 | 17 | 1014.0 |
| 20260901143013 | 81 | 308 | 3.0 | 9.0 | 0.00 | 0.00 | 0.00 | 13 | 1014.0 |
| 20260901141514 | 81 | 321 | 4.0 | 10.0 | 0.00 | 0.00 | 0.00 | 15 | 1014.2 |
| 20260901140005 | 81 | 351 | 2.0 | 8.0 | 0.00 | 0.00 | 0.00 | 5 | 1013.9 |
| 20260901134501 | 80 | 308 | 2.0 | 7.0 | 0.00 | 0.00 | 0.00 | 3 | 1014.2 |
| 20260901133106 | 79 | 312 | 4.0 | 7.0 | 0.00 | 0.00 | 0.00 | 1 | 1014.2 |
| 20260901131554 | 79 | 338 | 3.0 | 8.0 | 0.00 | 0.00 | 0.00 | 100 | 1014.2 |
| 20260901130048 | 78 | 298 | 2.0 | 8.0 | 0.00 | 0.00 | 0.00 | 100 | 1014.3 |
| 20260901124545 | 77 | 299 | 2.0 | 8.0 | 0.00 | 0.00 | 0.00 | 100 | 1014.3 |
| 20260901123041 | 76 | 293 | 3.0 | 7.0 | 0.00 | 0.00 | 0.00 | 100 | 1014.4 |
| 20260901121544 | 76 | 288 | 2.0 | 6.0 | 0.00 | 0.00 | 0.00 | 100 | 1014.3 |
| 20260901120034 | 75 | 258 | 2.0 | 7.0 | 0.00 | 0.00 | 0.00 | 100 | 1014.1 |
| 20260901114525 | 75 | 292 | 2.0 | 6.0 | 0.00 | 0.00 | 0.00 | 100 | 1014.0 |
| 20260901113022 | 75 | 289 | 3.0 | 6.0 | 0.00 | 0.00 | 0.00 | 100 | 1014.0 |
| 20260901111517 | 75 | 276 | 2.0 | 6.0 | 0.00 | 0.00 | 0.00 | 100 | 1013.9 |
| 20260901110013 | 75 | 292 | 3.0 | 6.0 | 0.00 | 0.00 | 0.00 | 100 | 1013.8 |
| 20260901104514 | 75 | 216 | 3.0 | 9.0 | 0.00 | 0.00 | 0.00 | 100 | 1013.7 |
| 20260901103005 | 75 | 242 | 2.0 | 5.0 | 0.00 | 0.00 | 0.00 | 100 | 1013.7 |
| 20260901101559 | 74 | 290 | 4.0 | 8.0 | 0.00 | 0.00 | 0.00 | 100 | 1013.6 |
| 20260901100058 | 74 | 259 | 3.0 | 6.0 | 0.00 | 0.00 | 0.00 | 100 | 1013.5 |
| 20260901094552 | 74 | 241 | 0.0 | 5.0 | 0.00 | 0.00 | 0.00 | 100 | 1013.4 |
| 20260901093046 | 74 | 288 | 1.0 | 6.0 | 0.00 | 0.00 | 0.00 | 100 | 1013.5 |
| 20260901091546 | 74 | 282 | 2.0 | 5.0 | 0.00 | 0.00 | 0.00 | 100 | 1013.5 |
| 20260901090051 | 74 | 287 | 3.0 | 8.0 | 0.00 | 0.00 | 0.00 | 100 | 1013.5 |
| 20260901084533 | 74 | 213 | 3.0 | 7.0 | 0.00 | 0.00 | 0.00 | 100 | 1013.4 |
| 20260901083029 | 74 | 259 | 3.0 | 7.0 | 0.00 | 0.00 | 0.00 | 100 | 1013.4 |
| 20260901081525 | 73 | 259 | 2.0 | 10.0 | 0.00 | 0.00 | 0.00 | 100 | 1013.4 |
| 20260901080020 | 73 | 265 | 3.0 | 7.0 | 0.00 | 0.00 | 0.00 | 100 | 1013.5 |
| 20260901074516 | 73 | 290 | 3.0 | 9.0 | 0.00 | 0.00 | 0.00 | 100 | 1013.6 |
| 20260901073023 | 73 | 294 | 2.0 | 5.0 | 0.00 | 0.00 | 0.00 | 100 | 1013.7 |
| 20260901071511 | 73 | 260 | 2.0 | 6.0 | 0.00 | 0.00 | 0.00 | 100 | 1013.8 |
| 20260901070002 | 73 | 284 | 3.0 | 6.0 | 0.00 | 0.00 | 0.00 | 100 | 1013.9 |